Regional Weather Roundup
Issued by NWS

Home | Current Version | Previous Version | Text Only | Print | Product List | Glossary Off
Versions: 1 2 3 4 5 6 7 8 9 10 11 12 13 14 15 16 17 18 19 20 21 22 23 24 25 26 27 28 29 30 31 32 33 34 35 36 37 38 39 40 41 42 43 44 45 46 47 48 49 50

000
ASUS43 KIND 252209
RWRIN

WEATHER ROUNDUP FOR INDIANA
NATIONAL WEATHER SERVICE INDIANAPOLIS IN
500 PM EST SAT FEB 25 2017

NOTE: "FAIR" INDICATES FEW OR NO CLOUDS BELOW 12,000 FEET WITH NO
SIGNIFICANT WEATHER AND/OR OBSTRUCTIONS TO VISIBILITY.

* - STATION DOES NOT REPORT WEATHER SUCH AS PRECIPITATION OR FOG.

+ - STATION NOT QUALITY CONTROLLED BY THE NATIONAL WEATHER SERVICE.
    USE DATA WITH CAUTION...ESPECIALLY DEWPOINT AND RELATIVE
    HUMIDITY OBSERVATIONS.

INZ001>003-010>013-019-020-252300-
NORTHWEST INDIANA

CITY           SKY/WX    TMP DP  RH WIND       PRES   REMARKS
GARY /AIRPORT/ CLOUDY    30  14  51 W20G32    29.95R WCI  18
KNOX *+        CLOUDY    28  -4  24 W15G25    29.92S WCI  17
LA PORTE +     MOSUNNY   26  17  70 NW8       29.92R WCI  17
MICHIGAN CITY+ CLOUDY    28  18  64 W12G22    29.94R WCI  18
MONTICELLO +   CLOUDY    32  18  55 W18G26    29.94S WCI  20
RENSSELAER +     N/A     32  18  55 W17G28    29.95R WCI  21
VALPARAISO     CLOUDY    29  17  61 W21G30    29.93R WCI  16

$$

LMZ046-743>745-252300-
SOUTHERN LAKE MICHIGAN

STATION/POSITION TIME  TEMP    WIND        PRES    WAVE
                       AIR SEA DIR/SP/G            HT
                 (UTC) (F)     (DEG/KT/KT) (MB)    (FT)
BURNS HARBOR     2140   28     290/ 16/ 21 1013.9R
MICHIGAN CITY    2140   26     250/ 23/ 26   N/A

$$

INZ004-005-014>016-021>024-252300-
NORTH CENTRAL INDIANA

CITY           SKY/WX    TMP DP  RH WIND       PRES   REMARKS
GOSHEN         LGT SNOW  26  17  68 W16       29.90R WCI  14
LOGANSPORT +   CLOUDY    30  19  64 W15G23    29.95R WCI  19
PERU/GRISSOM   CLOUDY    29  19  66 W20G28    29.91S WCI  16
ROCHESTER +    MOSUNNY   30  18  59 W13G23    29.93R WCI  20
SOUTH BEND     CLOUDY    25  14  63 W15       29.91R WCI  13

$$

INZ006>009-017-018-025>027-252300-
NORTHEAST INDIANA

CITY           SKY/WX    TMP DP  RH WIND       PRES   REMARKS
ANGOLA *+      CLOUDY    25  18  74 W16       29.86R WCI  12
AUBURN +       FLURRIES  28  18  64 W14G21    29.90R WCI  17
FORT WAYNE     FLURRIES  27  18  69 W18G29    29.90R WCI  14
HUNTINGTON +   FLURRIES  27  19  73 W12G18    29.92R WCI  16
KENDALLVILLE + LGT SNOW  25  19  78 W16G23    29.88R WCI  12

$$

INZ028-029-035-036-043>045-051>053-252300-
WEST CENTRAL INDIANA

CITY           SKY/WX    TMP DP  RH WIND       PRES   REMARKS
LAFAYETTE      CLOUDY    29  19  66 W24G32    29.97R WCI  15
TERRE HAUTE    PTSUNNY   35  15  44 W17G24    30.02R WCI  25

$$

INZ030>032-037>040-046>048-054>057-064-065-252300-
CENTRAL INDIANA

CITY           SKY/WX    TMP DP  RH WIND       PRES   REMARKS
CP ATTERBURY + CLOUDY    32  18  55 W14       30.00R WCI  22
COLUMBUS       CLOUDY    32  18  55 W23       30.01R WCI  19
FISHERS *+     CLOUDY    30  21  69 W13G20    29.97R WCI  20
FRANKFORT +    CLOUDY    32  21  65 W17       29.98R WCI  20
GREENWOOD *+   CLOUDY    32  17  54 W16G28    29.99R WCI  22
INDIANAPOLIS   CLOUDY    32  16  51 W21       29.98R WCI  20
-EAGLE CREEK   CLOUDY    32  16  51 W15G24    29.97R WCI  22
KOKOMO +       FLURRIES  29  21  72 W18G25    29.95R WCI  16
MARION +       CLOUDY    27  19  72 W18G25    29.95R WCI  14
MT COMFORT *+  CLOUDY    30  18  59 W22G28    29.97R WCI  17
SHELBYVILLE    CLOUDY    34  16  47 W16       29.97R WCI  24
ZIONSVILLE +   CLOUDY    29  19  65 W17G26    29.97R WCI  17

$$

INZ033-034-041-042-049-050-058-059-252300-
EAST CENTRAL INDIANA

CITY           SKY/WX    TMP DP  RH WIND       PRES   REMARKS
MUNCIE         CLOUDY    29  17  61 W23G32    29.94R WCI  15

$$

INZ060-061-067>069-081>083-085>088-252300-
SOUTHWEST INDIANA

CITY           SKY/WX    TMP DP  RH WIND       PRES   REMARKS
EVANSVILLE     MOSUNNY   40  17  39 W14G23    30.07R
HUNTINGBURG *+ PTSUNNY   38  18  44 NW15      30.05R
WASHINGTON +   MOSUNNY   37  14  40 W12G21    30.05R

$$

INZ062-063-066-070>080-084-089>092-252300-
SOUTH CENTRAL AND SOUTHEAST INDIANA

CITY           SKY/WX    TMP DP  RH WIND       PRES   REMARKS
BEDFORD +      PTSUNNY   34  16  47 W10G22    30.01  WCI  26
BLOOMINGTON    CLOUDY    33  15  47 W17G24    30.00R WCI  22
MADISON *+     CLOUDY    34  19  55 W13       30.02R WCI  25
NORTH VERNON + CLOUDY    34  19  55 W15G21    30.00R WCI  24
SEYMOUR +      PTSUNNY   37  19  48 W20       30.02

$$





USA.gov is the U.S. government's official web portal to all federal, state and local government web resources and services.